Weather History for Al Hoceima, Morocco

Change the Weather History Date:

Sunday, October 28, 2012

  Actual Average Record
Temperature  
Mean Temperature 68 °F -  
Max Temperature 75 °F 66 °F 82 °F (2006)
Min Temperature 60 °F 52 °F 51 °F (2000)
Cooling Degree Days 2    
Growing Degree Days 18 (Base 50)    
Moisture  
Dew Point 56 °F    
Average Humidity 64    
Maximum Humidity 73    
Minimum Humidity 48    
Precipitation  
Precipitation 0.00 in - - ()
Sea Level Pressure  
Sea Level Pressure 29.97 in    
Wind  
Wind Speed 4 mph ()    
Max Wind Speed 9 mph    
Max Gust Speed -    
Visibility 6.1 miles    
Events      
Averages and records for this station are not official NWS values.
T = Trace of Precipitation, MM = Missing Value Source: Averaged Metar Reports

Daily Weather History Graph

Daily Weather History Graph

Search for Another Location

Airport:

Trip Planner

Search our weather history database for the weather conditions in past years. The results will help you decide how hot, cold, wet, or windy it might be!

Date:

Astronomy

Oct. 28, 2012 Rise Set
Actual Time 6:33 AM WET 5:24 PM WET
Civil Twilight 6:07 AM WET 5:50 PM WET
Nautical Twilight 5:37 AM WET 6:20 PM WET
Astronomical Twilight 5:07 AM WET 6:49 PM WET
Moon 4:33 PM WET 5:13 AM WET
Length of Visible Light 11h 43m
Length of Day
10h 51m
Waxing Gibbous, 98% of the Moon is Illuminated
Oct 28
Waxing Gibbous
Oct 29
Full
Nov 7
Last Quarter
Nov 13
New
Nov 20
First Quarter

Hourly Weather History & Observations

Time (WET) Temp. Dew Point Humidity Pressure Visibility Wind Dir Wind Speed Gust Speed Precip Events Conditions
6:00 AM 64 °F 54 °F 60% 29.91 in 6 mi South 4.6 mph - -   Scattered Clouds
6:00 AM 64.4 °F 53.6 °F 68% 29.89 in 6.2 mi South 4.6 mph - N/A   Partly Cloudy
7:00 AM 64.4 °F 53.6 °F 68% 29.92 in 6.2 mi SSW 2.3 mph - N/A   Partly Cloudy
8:00 AM 68.0 °F 55.4 °F 64% 29.95 in 6.2 mi South 2.3 mph - N/A   Partly Cloudy
9:00 AM 73 °F 57 °F 48% 29.96 in 6 mi SW 4.6 mph - -   Scattered Clouds
9:00 AM 73.4 °F 57.2 °F 57% 29.95 in - SW 4.6 mph - N/A   Clear
10:00 AM 73.4 °F 59.0 °F 61% 29.98 in 6.2 mi North 6.9 mph - N/A   Partly Cloudy
11:00 AM 71.6 °F 59.0 °F 64% 29.98 in 6.2 mi North 6.9 mph - N/A   Scattered Clouds
12:00 PM 71 °F 60 °F 61% 29.98 in 6 mi NNE 9.2 mph - -   Scattered Clouds
12:00 PM 71.6 °F 60.8 °F 69% 29.98 in 6.2 mi NNE 9.2 mph - N/A   Scattered Clouds
1:00 PM 71.6 °F 59.0 °F 64% 29.95 in 6.2 mi NNE 9.2 mph - N/A   Partly Cloudy
2:00 PM 69.8 °F 59.0 °F 68% 29.95 in 6.2 mi NNE 6.9 mph - N/A   Partly Cloudy
3:00 PM 71 °F 58 °F 54% 29.97 in 6 mi NNE 4.6 mph - -   Scattered Clouds
3:00 PM 71.6 °F 57.2 °F 60% 29.95 in 6.2 mi NNE 4.6 mph - N/A   Partly Cloudy
4:00 PM 69.8 °F 57.2 °F 64% 29.95 in 6.2 mi North 6.9 mph - N/A   Partly Cloudy
5:00 PM 69.8 °F 57.2 °F 64% 29.98 in 6.2 mi West 4.6 mph - N/A   Partly Cloudy
6:00 PM 66 °F 55 °F 59% 29.99 in 6 mi West 2.3 mph - -   Scattered Clouds
6:00 PM 66.2 °F 55.4 °F 68% 29.98 in 6.2 mi West 2.3 mph - N/A   Partly Cloudy
7:00 PM 64.4 °F 55.4 °F 73% 29.98 in 6.2 mi SW 2.3 mph - N/A   Partly Cloudy
8:00 PM 62.6 °F 51.8 °F 68% 30.01 in - West 2.3 mph - N/A   Clear
9:00 PM 62 °F 53 °F 66% 30.03 in 6 mi SSW 2.3 mph - -   Clear
9:00 PM 62.6 °F 53.6 °F 72% 30.01 in - SSW 2.3 mph - N/A   Clear